Date,TemperatureHighF,TemperatureAvgF,TemperatureLowF,DewpointHighF,DewpointAvgF,DewpointLowF,HumidityHigh,HumidityAvg,HumidityLow,PressureMaxIn,PressureMinIn,WindSpeedMaxMPH,WindSpeedAvgMPH,GustSpeedMaxMPH,PrecipitationSumIn
2013-1-1,40,36,26,-100,-100,-100,0,0,100,29.98,29.80,7,-778,19,0.00
2013-1-2,31,27,21,-100,-100,-100,0,0,100,30.14,29.98,9,-864,17,0.00
2013-1-3,33,27,21,-100,-100,-100,0,0,100,30.17,30.03,6,-901,13,0.00
2013-1-4,39,34,29,-100,-100,-100,0,0,100,30.04,29.91,7,-760,15,0.00
2013-1-5,44,35,28,-100,-100,-100,0,0,100,30.23,29.98,8,-915,18,0.00
2013-1-6,47,38,31,-100,-100,-100,0,0,100,30.18,29.93,4,-871,11,0.00
2013-1-7,46,35,26,-100,-100,-100,0,0,100,30.36,30.01,10,-830,17,0.00
2013-1-8,49,34,24,-100,-100,-100,0,0,100,30.38,30.30,0,-999,10,0.00
2013-1-9,44,36,26,-100,-100,-100,0,0,100,30.35,30.10,7,-912,9,0.00
2013-1-10,48,41,32,-100,-100,-100,0,0,100,30.51,30.18,0,-999,12,0.00
2013-1-11,42,37,30,-100,-100,-100,0,0,100,30.51,30.07,5,-957,8,0.00
2013-1-12,48,45,42,-100,-100,-100,0,0,100,30.15,30.05,0,-999,0,0.00
2013-1-13,48,46,45,-100,-100,-100,0,0,100,30.13,29.97,0,-999,4,0.00
2013-1-14,54,49,40,-100,-100,-100,0,0,100,30.26,29.88,7,-570,19,0.00
2013-1-15,40,38,35,-100,-100,-100,0,0,100,30.32,30.20,7,-540,10,0.00
2013-1-16,35,32,31,-100,-100,-100,0,0,100,30.20,29.85,0,-999,8,0.00
2013-1-17,43,38,33,-100,-100,-100,0,0,100,30.06,29.88,11,-683,13,0.00
2013-1-18,34,28,24,-100,-100,-100,0,0,100,30.44,29.99,9,-496,19,0.00
2013-1-19,49,38,25,-100,-100,-100,0,0,100,30.36,29.89,11,-496,20,0.00
2013-1-20,53,41,29,-100,-100,-100,0,0,100,30.01,29.66,13,-469,21,0.00
2013-1-21,30,27,21,-100,-100,-100,0,0,100,30.06,29.81,9,-968,12,0.00
2013-1-22,26,20,13,-100,-100,-100,0,0,100,30.18,29.80,15,-575,23,0.00
2013-1-23,20,14,8,-100,-100,-100,0,0,100,30.23,30.14,8,-955,16,0.00
2013-1-24,24,16,8,-100,-100,-100,0,0,100,30.37,30.11,15,-575,22,0.00
2013-1-25,25,18,11,-100,-100,-100,0,0,100,30.38,30.04,9,-957,10,0.00
2013-1-26,29,20,13,-100,-100,-100,0,0,100,30.35,30.03,12,-614,22,0.00
2013-1-27,35,25,17,-100,-100,-100,0,0,100,30.50,30.35,9,-789,19,0.00
2013-1-28,34,29,23,-100,-100,-100,0,0,100,30.45,29.98,6,-957,9,0.00
2013-1-29,53,41,34,-100,-100,-100,0,0,100,30.10,29.97,7,-890,10,0.00
2013-1-30,53,46,39,-100,-100,-100,0,0,100,30.06,29.32,0,-999,0,0.00
2013-1-31,51,39,29,-100,-100,-100,0,0,100,29.73,29.26,20,-230,31,0.00
2013-2-1,31,27,23,-100,-100,-100,0,0,100,30.20,29.76,16,-696,27,0.00
2013-2-2,29,24,19,-100,-100,-100,0,0,100,30.27,30.03,7,-832,17,0.00
2013-2-3,31,25,19,-100,-100,-100,0,0,100,30.03,29.77,5,-957,10,0.00
2013-2-4,30,27,22,-100,-100,-100,0,0,100,29.94,29.78,14,-798,17,0.00
2013-2-5,30,28,26,-100,-100,-100,0,0,100,29.95,29.88,5,-955,7,0.00
2013-2-6,40,32,27,-100,-100,-100,0,0,100,30.32,29.89,12,-734,18,0.00
2013-2-7,31,27,20,-100,-100,-100,0,0,100,30.48,30.31,6,-956,8,0.00
2013-2-8,33,31,27,-100,-100,-100,0,0,100,30.31,29.62,9,-798,16,0.00
2013-2-9,33,28,20,-100,-100,-100,0,0,100,30.32,29.72,21,-571,32,0.00
2013-2-10,40,24,11,-100,-100,-100,0,0,100,30.45,30.30,4,-956,8,0.00
2013-2-11,42,35,27,-100,-100,-100,0,0,100,30.30,29.64,0,-999,11,0.00
2013-2-12,47,40,30,-100,-100,-100,0,0,100,29.93,29.69,8,-722,25,0.00
2013-2-13,46,35,23,-100,-100,-100,0,0,100,29.92,29.67,8,-914,11,0.00
2013-2-14,47,37,29,-100,-100,-100,0,0,100,29.96,29.69,5,-737,10,0.00
2013-2-15,55,41,28,-100,-100,-100,0,0,100,29.98,29.87,6,-732,12,0.00
2013-2-16,40,35,29,-100,-100,-100,0,0,100,29.94,29.72,6,-629,19,0.00
2013-2-17,31,26,17,-100,-100,-100,0,0,100,29.97,29.65,20,-374,38,0.00
2013-2-18,37,26,17,-100,-100,-100,0,0,100,30.20,29.97,12,-789,23,0.00
2013-2-19,46,35,23,-100,-100,-100,0,0,100,30.16,29.65,12,-903,22,0.00
2013-2-20,38,30,25,-100,-100,-100,0,0,100,29.95,29.69,15,-208,25,0.00
2013-2-21,34,28,24,-100,-100,-100,0,0,100,30.25,29.94,19,-294,31,0.00
2013-2-22,40,32,23,-100,-100,-100,0,0,100,30.37,30.23,7,-912,11,0.00
2013-2-23,41,37,33,-100,-100,-100,0,0,100,30.24,29.79,6,-867,14,0.00
2013-2-24,49,39,32,-100,-100,-100,0,0,100,29.93,29.72,13,-360,20,0.00
2013-2-25,46,38,28,-100,-100,-100,0,0,100,30.20,29.93,13,-646,15,0.00
2013-2-26,43,37,27,-100,-100,-100,0,0,100,30.26,29.87,10,-404,22,0.00
2013-2-27,46,42,36,-100,-100,-100,0,0,100,29.87,29.48,15,-508,26,0.00
2013-2-28,52,43,38,-100,-100,-100,0,0,100,29.59,29.52,7,-700,13,0.00
2013-3-1,45,40,34,-100,-100,-100,0,0,100,29.75,29.57,13,-37,17,0.00
2013-3-2,40,36,30,-100,-100,-100,0,0,100,29.75,29.67,10,-376,19,0.00
2013-3-3,41,32,28,-100,-100,-100,0,0,100,29.74,29.64,13,-343,21,0.00
2013-3-4,42,33,27,-100,-100,-100,0,0,100,29.88,29.73,13,-364,28,0.00
2013-3-5,50,39,30,-100,-100,-100,0,0,100,29.99,29.88,9,-784,22,0.00
2013-3-6,44,40,38,-100,-100,-100,0,0,100,29.95,29.85,13,-193,32,0.00
2013-3-7,40,37,32,-100,-100,-100,0,0,100,30.05,29.90,18,-305,20,0.00
2013-3-8,40,34,31,-100,-100,-100,0,0,100,30.17,29.98,13,-623,17,0.00
2013-3-9,56,42,32,-100,-100,-100,0,0,100,30.25,30.16,14,-392,18,0.00
2013-3-11,52,50,49,-100,-100,-100,0,0,100,30.12,30.09,12,-315,14,0.00
2013-3-12,53,50,42,-100,-100,-100,0,0,100,30.09,29.66,11,-571,22,0.00
2013-3-13,51,42,36,-100,-100,-100,0,0,100,29.89,29.78,8,-509,17,0.00
2013-3-14,42,35,29,-100,-100,-100,0,0,100,29.96,29.85,15,-512,28,0.00
2013-3-15,46,37,29,-100,-100,-100,0,0,100,29.97,29.71,11,-862,22,0.00
2013-3-16,40,34,30,-100,-100,-100,0,0,100,29.91,29.78,8,-868,7,0.00
2013-3-17,39,33,27,-100,-100,-100,0,0,100,30.30,29.91,8,-653,17,0.00
2013-3-18,36,29,24,-100,-100,-100,0,0,100,30.40,30.03,7,-768,12,0.00
2013-3-19,46,37,32,-100,-100,-100,0,0,100,30.03,29.70,7,-611,16,0.00
2013-3-20,44,37,29,-100,-100,-100,0,0,100,29.88,29.78,17,-576,21,0.00
2013-3-21,42,34,30,-100,-100,-100,0,0,100,29.83,29.63,9,-748,15,0.00
2013-3-22,41,34,27,-100,-100,-100,0,0,100,29.88,29.73,9,-783,24,0.00
2013-3-23,48,39,32,-100,-100,-100,0,0,100,29.93,29.83,14,-490,24,0.00
2013-3-24,48,40,30,-100,-100,-100,0,0,100,29.94,29.72,9,-612,23,0.00
2013-3-25,43,40,38,-100,-100,-100,0,0,100,29.72,29.47,10,-534,20,0.00
2013-3-26,52,43,34,-100,-100,-100,0,0,100,29.86,29.59,8,-716,17,0.00
2013-3-27,53,43,34,-100,-100,-100,0,0,100,29.98,29.86,12,-479,18,0.00
2013-3-28,51,44,37,-100,-100,-100,0,0,100,30.11,29.96,9,-390,18,0.00
2013-3-29,54,47,40,-100,-100,-100,0,0,100,30.14,30.06,10,-588,17,0.00
2013-3-30,59,47,35,-100,-100,-100,0,0,100,30.16,30.06,8,-780,17,0.00
2013-3-31,55,43,30,-100,-100,-100,0,0,100,30.12,29.68,17,-652,21,0.00
2013-4-1,62,47,37,-100,-100,-100,0,0,100,29.91,29.63,10,-463,27,0.00
2013-4-2,46,37,29,-100,-100,-100,0,0,100,30.09,29.91,13,-636,22,0.00
2013-4-3,48,38,31,-100,-100,-100,0,0,100,30.30,30.08,11,-613,24,0.00
2013-4-4,56,42,29,-100,-100,-100,0,0,100,30.39,30.08,12,-756,19,0.00
2013-4-5,64,50,41,-100,-100,-100,0,0,100,30.08,29.72,20,-693,26,0.00
2013-4-6,54,43,32,-100,-100,-100,0,0,100,30.30,30.00,12,-744,21,0.00
2013-4-7,61,48,38,-100,-100,-100,0,0,100,30.30,30.00,14,-586,18,0.00
2013-4-8,77,59,42,-100,-100,-100,0,0,100,30.07,29.98,7,-728,20,0.00
2013-4-9,82,66,50,-100,-100,-100,0,0,100,29.99,29.89,16,-520,21,0.00
2013-4-10,77,63,53,-100,-100,-100,0,0,100,29.93,29.82,11,-540,27,0.00
2013-4-11,63,56,48,-100,-100,-100,0,0,100,30.05,29.78,11,-398,15,0.00
2013-4-12,48,44,41,-100,-100,-100,0,0,100,30.04,29.72,15,-406,22,0.00
2013-4-13,59,48,39,-100,-100,-100,0,0,100,29.96,29.77,10,-751,13,0.00
2013-4-14,56,51,47,-100,-100,-100,0,0,100,30.22,29.96,8,-671,19,0.00
2013-4-15,62,50,40,-100,-100,-100,0,0,100,30.37,30.22,7,-754,13,0.00
2013-4-16,65,56,48,-100,-100,-100,0,0,100,30.37,30.11,9,-604,19,0.00
2013-4-17,73,63,51,-100,-100,-100,0,0,100,30.29,30.11,8,-710,13,0.00
2013-4-18,60,53,45,-100,-100,-100,0,0,100,30.34,30.12,8,-657,15,0.00
2013-4-19,76,64,54,-100,-100,-100,0,0,100,30.08,29.63,10,-530,15,0.00
2013-4-20,64,53,45,-100,-100,-100,0,0,100,30.31,29.65,14,-288,22,0.00
2013-4-21,54,45,34,-100,-100,-100,0,0,100,30.62,30.31,14,-682,21,0.00
2013-4-22,54,46,35,-100,-100,-100,0,0,100,30.66,30.50,12,-446,20,0.00
2013-4-23,52,45,40,-100,-100,-100,0,0,100,30.50,30.12,9,-441,13,0.00
2013-4-24,74,55,38,-100,-100,-100,0,0,100,30.12,29.82,8,-679,13,0.00
2013-4-25,67,56,46,-100,-100,-100,0,0,100,30.26,29.85,11,-539,23,0.00
2013-4-26,67,55,40,-100,-100,-100,0,0,100,30.41,30.26,12,-608,14,0.00
2013-4-27,71,56,40,-100,-100,-100,0,0,100,30.43,30.27,3,-934,12,0.00
2013-4-28,72,57,42,-100,-100,-100,0,0,100,30.31,30.20,8,-771,15,0.00
2013-4-29,56,54,53,-100,-100,-100,0,0,100,30.24,30.19,6,-760,13,0.00
2013-4-30,71,58,47,-100,-100,-100,0,0,100,30.33,30.20,6,-668,16,0.00
2013-5-1,72,55,38,-100,-100,-100,0,0,100,30.48,30.33,7,-668,14,0.00
2013-5-2,76,58,41,-100,-100,-100,0,0,100,30.48,30.31,11,-830,11,0.00
2013-5-3,69,57,48,-100,-100,-100,0,0,100,30.46,30.35,11,-691,15,0.00
2013-5-4,73,56,43,-100,-100,-100,0,0,100,30.37,30.23,10,-710,14,0.00
2013-5-5,67,52,41,-100,-100,-100,0,0,100,30.30,30.22,8,-668,12,0.00
2013-5-6,72,56,42,-100,-100,-100,0,0,100,30.27,30.14,6,-646,12,0.00
2013-5-7,76,63,47,-100,-100,-100,0,0,100,30.17,30.08,9,-536,13,0.00
2013-5-8,67,61,53,-100,-100,-100,0,0,100,30.10,29.98,3,-840,11,0.00
2013-5-9,68,58,52,-100,-100,-100,0,0,100,30.01,29.89,3,-954,6,0.00
2013-5-10,80,66,51,-100,-100,-100,0,0,100,30.00,29.89,7,-661,10,0.00
2013-5-11,71,66,62,-100,-100,-100,0,0,100,29.91,29.71,7,-608,13,0.00
2013-5-12,69,61,51,-100,-100,-100,0,0,100,29.93,29.66,10,-444,21,0.00
2013-5-13,54,50,43,-100,-100,-100,0,0,100,30.11,29.93,15,-622,17,0.00
2013-5-14,62,51,42,-100,-100,-100,0,0,100,30.15,30.02,9,-614,16,0.00
2013-5-15,70,57,41,-100,-100,-100,0,0,100,30.07,29.67,11,-701,14,0.00
2013-5-16,82,62,52,-100,-100,-100,0,0,100,29.83,29.70,6,-771,10,0.00
2013-5-17,75,64,54,-100,-100,-100,0,0,100,30.20,29.83,11,-565,20,0.00
2013-5-18,67,59,48,-100,-100,-100,0,0,100,30.30,30.20,6,-872,8,0.00
2013-5-19,58,57,54,-100,-100,-100,0,0,100,30.32,30.18,0,-999,9,0.00
2013-5-20,80,67,56,-100,-100,-100,0,0,100,30.18,29.95,6,-775,9,0.00
2013-5-21,87,75,62,-100,-100,-100,0,0,100,29.97,29.82,7,-660,14,0.00
2013-5-22,83,72,61,-100,-100,-100,0,0,100,29.93,29.82,7,-691,10,0.00
2013-5-23,78,72,68,-100,-100,-100,0,0,100,29.88,29.75,7,-740,19,0.00
2013-5-24,68,56,46,-100,-100,-100,0,0,100,29.94,29.69,10,-649,16,0.00
2013-5-25,52,49,45,-100,-100,-100,0,0,100,30.00,29.90,9,-205,28,0.00
2013-5-26,67,56,47,-100,-100,-100,0,0,100,30.20,29.95,8,-367,23,0.00
2013-5-27,77,61,42,-100,-100,-100,0,0,100,30.24,30.11,9,-623,11,0.00
2013-5-28,68,57,50,-100,-100,-100,0,0,100,30.22,30.13,3,-954,7,0.00
2013-5-29,83,69,58,-100,-100,-100,0,0,100,30.14,29.99,5,-824,11,0.00
2013-5-30,94,82,71,-100,-100,-100,0,0,100,30.12,30.04,8,-424,10,0.00
2013-5-31,95,82,68,-100,-100,-100,0,0,100,30.12,29.98,8,-664,12,0.00
2013-6-1,93,80,69,-100,-100,-100,0,0,100,30.01,29.89,8,-653,12,0.00
2013-6-2,88,80,72,-100,-100,-100,0,0,100,29.91,29.76,8,-590,14,0.00
2013-6-3,79,73,67,-100,-100,-100,0,0,100,29.87,29.80,10,-641,16,0.00
2013-6-4,77,66,56,-100,-100,-100,0,0,100,30.11,29.87,8,-371,16,0.00
2013-6-5,77,65,50,-100,-100,-100,0,0,100,30.21,30.10,7,-745,11,0.00
2013-6-6,73,63,53,-100,-100,-100,0,0,100,30.14,30.02,6,-825,13,0.00
2013-6-7,62,60,58,-100,-100,-100,0,0,100,30.02,29.65,6,-866,10,0.00
2013-6-8,78,67,56,-100,-100,-100,0,0,100,30.04,29.60,7,-690,12,0.00
2013-6-9,82,71,58,-100,-100,-100,0,0,100,30.16,30.04,9,-730,11,0.00
2013-6-10,71,66,63,-100,-100,-100,0,0,100,30.15,29.85,5,-846,12,0.00
2013-6-11,80,71,63,-100,-100,-100,0,0,100,29.85,29.62,10,-609,16,0.00
2013-6-12,77,70,60,-100,-100,-100,0,0,100,29.84,29.71,9,-440,20,0.00
2013-6-13,64,60,56,-100,-100,-100,0,0,100,29.84,29.50,7,-778,14,0.78
2013-6-14,75,62,53,-100,-100,-100,0,0,100,29.88,29.54,8,-452,16,0.38
2013-6-15,81,72,63,-100,-100,-100,0,0,100,30.01,29.88,8,-615,16,0.00
2013-6-16,81,70,55,-100,-100,-100,0,0,100,29.98,29.76,8,-706,13,0.00
2013-6-17,85,75,64,-100,-100,-100,0,0,100,29.90,29.82,8,-664,12,0.00
2013-6-18,83,69,63,-100,-100,-100,0,0,100,29.90,29.81,7,-917,8,1.46
2013-6-19,78,68,56,-100,-100,-100,0,0,100,30.16,29.89,6,-629,13,0.00
2013-6-20,80,66,53,-100,-100,-100,0,0,100,30.26,30.16,6,-742,9,0.00
2013-6-22,83,80,70,-100,-100,-100,0,0,100,30.25,30.12,5,-414,11,0.00
2013-6-23,89,77,66,-100,-100,-100,0,0,100,30.18,30.05,9,-573,15,0.00
2013-6-24,95,83,74,-100,-100,-100,0,0,100,30.06,29.94,6,-628,14,0.00
2013-6-25,93,80,69,-100,-100,-100,0,0,100,29.99,29.80,14,-542,14,0.00
2013-6-26,84,78,74,-100,-100,-100,0,0,100,29.84,29.78,5,-701,10,0.00
2013-6-27,85,78,71,-100,-100,-100,0,0,100,29.82,29.54,8,-675,14,0.71
2013-6-28,86,79,74,-100,-100,-100,0,0,100,29.55,29.47,8,-330,11,0.02
2013-6-29,86,77,69,-100,-100,-100,0,0,100,29.68,29.49,8,-595,15,0.00
2013-6-30,85,76,68,-100,-100,-100,0,0,100,29.90,29.68,6,-706,12,0.00
2013-7-1,78,75,73,-100,-100,-100,0,0,100,30.04,29.89,3,-913,10,1.55
2013-7-2,84,78,74,-100,-100,-100,0,0,100,30.16,30.03,7,-770,15,0.01
2013-7-3,84,78,73,-100,-100,-100,0,0,100,30.24,30.16,6,-586,12,0.01
2013-7-4,92,81,75,-100,-100,-100,0,0,100,30.25,30.14,13,-444,13,0.00
2013-7-5,94,84,74,-100,-100,-100,0,0,100,30.20,30.07,6,-474,10,0.00
2013-7-6,94,83,76,-100,-100,-100,0,0,100,30.13,30.01,7,-646,12,0.00
2013-7-7,95,84,74,-100,-100,-100,0,0,100,30.05,29.92,6,-655,13,0.13
2013-7-8,89,78,71,-100,-100,-100,0,0,100,30.03,29.95,5,-535,14,0.00
2013-7-9,89,80,70,-100,-100,-100,0,0,100,30.06,29.98,8,-745,11,0.00
2013-7-10,87,81,76,-100,-100,-100,0,0,100,30.01,29.81,8,-504,13,0.00
2013-7-11,85,79,73,-100,-100,-100,0,0,100,29.93,29.80,6,-686,11,0.02
2013-7-12,79,74,69,-100,-100,-100,0,0,100,30.11,29.92,9,-377,18,0.49
2013-7-13,79,73,67,-100,-100,-100,0,0,100,30.27,30.11,5,-914,12,0.55
2013-7-14,93,82,73,-100,-100,-100,0,0,100,30.33,30.22,4,-832,10,0.00
2013-7-15,95,84,76,-100,-100,-100,0,0,100,30.24,30.12,6,-686,16,0.00
2013-7-16,95,84,72,-100,-100,-100,0,0,100,30.20,30.13,9,-591,14,0.00
2013-7-17,97,84,73,-100,-100,-100,0,0,100,30.19,30.05,6,-802,9,0.00
2013-7-18,98,87,76,-100,-100,-100,0,0,100,30.06,29.95,7,-582,11,0.00
2013-7-19,98,88,79,-100,-100,-100,0,0,100,29.96,29.78,7,-582,16,0.00
2013-7-20,94,85,78,-100,-100,-100,0,0,100,29.83,29.72,9,-335,16,0.00
2013-7-21,87,80,74,-100,-100,-100,0,0,100,29.95,29.83,6,-745,9,0.12
2013-7-22,82,76,72,-100,-100,-100,0,0,100,29.95,29.80,7,-858,14,1.69
2013-7-23,87,78,73,-100,-100,-100,0,0,100,29.80,29.56,6,-805,11,1.64
2013-7-24,81,75,68,-100,-100,-100,0,0,100,29.94,29.61,7,-497,20,0.00
2013-7-25,69,66,63,-100,-100,-100,0,0,100,30.06,29.94,9,-304,14,0.00
2013-7-26,82,73,66,-100,-100,-100,0,0,100,30.04,29.98,6,-675,11,0.00
2013-7-27,84,74,64,-100,-100,-100,0,0,100,30.05,29.96,5,-719,11,0.00
2013-7-28,80,72,66,-100,-100,-100,0,0,100,29.99,29.93,6,-702,11,0.33
2013-7-29,84,75,68,-100,-100,-100,0,0,100,30.09,29.95,6,-659,13,0.01
2013-7-30,80,72,59,-100,-100,-100,0,0,100,30.17,30.09,5,-811,13,0.00
2013-7-31,82,72,58,-100,-100,-100,0,0,100,30.16,30.03,4,-844,7,0.00
2013-8-1,74,68,66,-100,-100,-100,0,0,100,30.03,29.84,7,-956,10,0.62
2013-8-2,83,74,64,-100,-100,-100,0,0,100,29.91,29.80,4,-830,13,0.00
2013-8-3,79,71,67,-100,-100,-100,0,0,100,29.91,29.83,6,-660,10,0.09
2013-8-4,80,72,61,-100,-100,-100,0,0,100,29.97,29.86,12,-622,15,0.00
2013-8-5,79,68,59,-100,-100,-100,0,0,100,30.06,29.97,6,-681,12,0.00
2013-8-6,82,69,54,-100,-100,-100,0,0,100,30.11,30.03,5,-702,12,0.00
2013-8-7,78,72,66,-100,-100,-100,0,0,100,30.14,30.06,7,-684,13,0.01
2013-8-8,81,74,70,-100,-100,-100,0,0,100,30.06,30.01,8,-924,11,1.13
2013-8-9,86,76,72,-100,-100,-100,0,0,100,30.01,29.79,6,-748,14,0.59
2013-8-10,83,74,65,-100,-100,-100,0,0,100,30.05,29.86,7,-716,13,0.00
2013-8-11,81,71,57,-100,-100,-100,0,0,100,30.12,30.02,4,-815,7,0.00
2013-8-12,82,73,68,-100,-100,-100,0,0,100,30.03,29.92,4,-905,6,0.19
2013-8-13,80,72,67,-100,-100,-100,0,0,100,29.93,29.69,3,-955,7,0.81
2013-8-14,74,66,55,-100,-100,-100,0,0,100,30.04,29.75,12,-628,18,0.00
2013-8-15,78,61,53,-100,-100,-100,0,0,100,30.14,30.04,7,-774,15,0.00
2013-8-16,82,68,53,-100,-100,-100,0,0,100,30.20,30.13,4,-951,7,0.00
2013-8-17,82,70,55,-100,-100,-100,0,0,100,30.27,30.20,4,-916,8,0.00
2013-8-18,77,69,63,-100,-100,-100,0,0,100,30.26,30.13,3,-916,6,0.00
2013-8-19,80,68,62,-100,-100,-100,0,0,100,30.13,30.03,6,-687,9,0.00
2013-8-20,69,68,68,-100,-100,-100,0,0,100,30.05,30.05,0,-999,5,0.00
2013-8-21,89,82,70,-100,-100,-100,0,0,100,30.14,30.05,3,-817,7,0.00
2013-8-22,77,73,69,-100,-100,-100,0,0,100,30.06,29.87,4,-868,8,0.47
2013-8-23,80,74,67,-100,-100,-100,0,0,100,30.10,29.87,8,-372,15,0.00
2013-8-24,81,69,58,-100,-100,-100,0,0,100,30.35,30.10,9,-623,12,0.00
2013-8-25,82,69,54,-100,-100,-100,0,0,100,30.39,30.23,5,-790,9,0.00
2013-8-26,78,73,67,-100,-100,-100,0,0,100,30.23,29.90,5,-832,11,0.08
2013-8-27,85,75,71,-100,-100,-100,0,0,100,29.90,29.82,9,-350,16,0.00
2013-8-28,78,74,71,-100,-100,-100,0,0,100,29.88,29.85,3,-845,10,0.08
2013-8-29,80,73,69,-100,-100,-100,0,0,100,30.02,29.88,4,-874,11,0.03
2013-8-30,84,76,70,-100,-100,-100,0,0,100,30.03,29.85,6,-520,12,0.00
2013-8-31,85,78,72,-100,-100,-100,0,0,100,29.86,29.78,8,-572,10,0.00
2013-9-1,83,77,73,-100,-100,-100,0,0,100,29.87,29.78,0,-999,7,0.93
2013-9-2,80,75,71,-100,-100,-100,0,0,100,29.80,29.71,8,-915,8,0.07
2013-9-3,81,72,64,-100,-100,-100,0,0,100,29.89,29.71,9,-748,12,0.17
2013-9-4,82,70,58,-100,-100,-100,0,0,100,30.00,29.88,7,-636,14,0.00
2013-9-5,77,68,57,-100,-100,-100,0,0,100,30.16,29.92,11,-643,13,0.00
2013-9-6,72,61,50,-100,-100,-100,0,0,100,30.27,30.14,7,-790,11,0.00
2013-9-7,80,64,48,-100,-100,-100,0,0,100,30.14,29.89,3,-916,10,0.00
2013-9-8,81,71,58,-100,-100,-100,0,0,100,30.09,29.83,12,-685,16,0.00
2013-9-9,75,63,50,-100,-100,-100,0,0,100,30.25,30.09,5,-853,11,0.00
2013-9-10,87,75,67,-100,-100,-100,0,0,100,30.17,30.04,8,-539,11,0.01
2013-9-11,95,83,72,-100,-100,-100,0,0,100,30.11,29.96,5,-743,10,0.00
2013-9-12,85,76,69,-100,-100,-100,0,0,100,29.98,29.69,6,-790,16,2.48
2013-9-13,76,68,57,-100,-100,-100,0,0,100,29.86,29.64,7,-476,19,0.05
2013-9-14,67,58,51,-100,-100,-100,0,0,100,30.13,29.86,11,-453,15,0.00
2013-9-15,73,56,46,-100,-100,-100,0,0,100,30.21,30.09,0,-999,8,0.00
2013-9-16,74,62,55,-100,-100,-100,0,0,100,30.26,30.03,11,-664,13,0.01
2013-9-17,67,55,46,-100,-100,-100,0,0,100,30.45,30.26,7,-539,14,0.00
2013-9-18,52,45,42,-100,-100,-100,0,0,100,30.36,30.20,0,-999,0,0.00
2013-9-19,79,60,46,-100,-100,-100,0,0,100,30.20,30.06,5,-957,9,0.00
2013-9-20,81,64,49,-100,-100,-100,0,0,100,30.09,29.99,4,-874,10,0.00
2013-9-21,78,65,51,-100,-100,-100,0,0,100,30.01,29.65,10,-622,16,0.17
2013-9-22,69,62,53,-100,-100,-100,0,0,100,29.93,29.65,17,-475,19,0.16
2013-9-23,67,56,47,-100,-100,-100,0,0,100,30.06,29.93,9,-413,18,0.00
2013-9-24,74,57,42,-100,-100,-100,0,0,100,30.07,29.88,6,-811,14,0.00
2013-9-25,74,59,44,-100,-100,-100,0,0,100,29.97,29.88,7,-912,8,0.00
2013-9-26,71,60,49,-100,-100,-100,0,0,100,30.11,29.94,4,-916,8,0.00
2013-9-27,68,59,49,-100,-100,-100,0,0,100,30.27,30.11,7,-706,11,0.00
2013-9-28,76,61,51,-100,-100,-100,0,0,100,30.34,30.24,8,-748,12,0.00
2013-9-29,73,59,49,-100,-100,-100,0,0,100,30.24,30.08,5,-665,10,0.00
2013-9-30,75,59,47,-100,-100,-100,0,0,100,30.09,29.97,5,-910,7,0.00
2013-10-1,68,67,66,-100,-100,-100,0,0,100,29.94,29.93,0,-999,0,0.00
2013-10-2,83,68,54,-100,-100,-100,0,0,100,30.01,29.91,10,-828,13,0.00
2013-10-3,78,66,53,-100,-100,-100,0,0,100,30.13,30.01,3,-912,5,0.00
2013-10-4,84,68,59,-100,-100,-100,0,0,100,30.07,29.96,5,-975,9,0.04
2013-10-5,78,69,65,-100,-100,-100,0,0,100,30.10,30.02,6,-915,8,0.00
2013-10-6,68,67,66,-100,-100,-100,0,0,100,30.10,30.03,0,-999,8,0.01
2013-10-7,76,67,56,-100,-100,-100,0,0,100,30.03,29.75,9,-748,25,0.45
2013-10-8,68,57,48,-100,-100,-100,0,0,100,30.35,29.98,9,-693,12,0.00
2013-10-9,63,54,47,-100,-100,-100,0,0,100,30.43,30.31,7,-657,14,0.00
2013-10-10,62,57,52,-100,-100,-100,0,0,100,30.30,30.10,7,-572,12,0.01
2013-10-11,68,64,58,-100,-100,-100,0,0,100,30.11,30.03,8,-372,15,0.00
2013-10-12,76,65,57,-100,-100,-100,0,0,100,30.29,30.09,13,-558,15,0.00
2013-10-13,67,58,51,-100,-100,-100,0,0,100,30.42,30.29,8,-350,16,0.00
2013-10-14,71,57,49,-100,-100,-100,0,0,100,30.37,30.24,6,-868,6,0.00
2013-10-15,75,58,47,-100,-100,-100,0,0,100,30.26,30.13,5,-908,8,0.00
2013-10-16,68,59,50,-100,-100,-100,0,0,100,30.13,29.92,6,-910,6,0.00
2013-10-17,76,67,62,-100,-100,-100,0,0,100,29.92,29.68,6,-665,8,0.02
2013-10-18,69,61,51,-100,-100,-100,0,0,100,29.98,29.67,7,-693,17,0.00
2013-10-19,64,54,42,-100,-100,-100,0,0,100,30.00,29.76,3,-874,11,0.02
2013-10-20,65,54,45,-100,-100,-100,0,0,100,30.07,29.76,7,-873,15,0.00
2013-10-21,69,53,39,-100,-100,-100,0,0,100,30.16,29.99,5,-874,12,0.00
2013-10-22,65,52,42,-100,-100,-100,0,0,100,29.99,29.75,3,-916,10,0.00
2013-10-23,55,46,38,-100,-100,-100,0,0,100,29.82,29.63,6,-914,12,0.00
2013-10-24,55,45,36,-100,-100,-100,0,0,100,30.01,29.76,11,-915,14,0.01
2013-10-25,53,43,34,-100,-100,-100,0,0,100,30.23,30.01,7,-915,15,0.00
2013-10-26,55,45,35,-100,-100,-100,0,0,100,30.22,29.91,14,-625,16,0.00
2013-10-27,57,48,35,-100,-100,-100,0,0,100,30.12,29.85,7,-824,16,0.00
2013-10-28,64,47,33,-100,-100,-100,0,0,100,30.32,30.12,7,-790,11,0.00
2013-10-29,56,46,37,-100,-100,-100,0,0,100,30.43,30.32,0,-999,7,0.00
2013-10-30,58,47,37,-100,-100,-100,0,0,100,30.35,30.18,0,-999,6,0.00
2013-10-31,64,54,41,-100,-100,-100,0,0,100,30.24,29.80,9,-933,13,0.00
2013-11-1,71,64,52,-100,-100,-100,0,0,100,29.80,29.55,10,-453,21,0.26
2013-11-2,67,56,47,-100,-100,-100,0,0,100,29.72,29.61,3,-901,8,0.00
2013-11-3,50,45,33,-100,-100,-100,0,0,100,30.43,29.82,13,-578,15,0.00
2013-11-4,48,36,28,-100,-100,-100,0,0,100,30.66,30.43,9,-873,13,0.00
2013-11-5,53,43,31,-100,-100,-100,0,0,100,30.66,30.50,0,-999,6,0.00
2013-11-6,62,50,40,-100,-100,-100,0,0,100,30.50,30.09,4,-885,11,0.00
2013-11-7,62,53,39,-100,-100,-100,0,0,100,30.09,29.76,7,-700,19,0.15
2013-11-8,50,42,36,-100,-100,-100,0,0,100,30.20,29.93,14,-790,16,0.00
2013-11-9,51,42,31,-100,-100,-100,0,0,100,30.28,30.02,4,-957,12,0.00
2013-11-10,58,49,44,-100,-100,-100,0,0,100,30.02,29.83,14,-664,23,0.00
2013-11-11,52,47,39,-100,-100,-100,0,0,100,30.20,29.97,12,-978,12,0.00
2013-11-12,50,38,30,-100,-100,-100,0,0,100,30.28,29.93,12,-700,31,0.03
2013-11-13,41,31,26,-100,-100,-100,0,0,100,30.37,30.28,8,-954,16,0.00
2013-11-14,52,39,27,-100,-100,-100,0,0,100,30.28,30.16,15,-956,16,0.00
2013-11-15,58,40,27,-100,-100,-100,0,0,100,30.22,30.15,4,-950,8,0.00
2013-11-16,62,48,37,-100,-100,-100,0,0,100,30.32,30.22,4,-910,10,0.01
2013-11-17,58,53,42,-100,-100,-100,0,0,100,30.29,29.82,5,-936,10,0.01
2013-11-18,65,58,51,-100,-100,-100,0,0,100,29.82,29.60,11,-559,19,0.29
2013-11-19,51,44,36,-100,-100,-100,0,0,100,30.33,29.77,16,-432,28,0.00
2013-11-20,46,35,28,-100,-100,-100,0,0,100,30.60,30.33,10,-785,13,0.00
2013-11-21,51,39,23,-100,-100,-100,0,0,100,30.62,30.41,0,-999,7,0.00
2013-11-22,57,51,47,-100,-100,-100,0,0,100,30.41,29.91,8,-601,12,0.05
2013-11-23,53,42,30,-100,-100,-100,0,0,100,30.04,29.91,21,-453,28,0.00
2013-11-24,30,26,22,-100,-100,-100,0,0,100,30.35,30.00,23,-320,35,0.00
2013-11-25,37,28,21,-100,-100,-100,0,0,100,30.47,30.33,8,-873,13,0.00
2013-11-26,41,35,31,-100,-100,-100,0,0,100,30.33,29.90,0,-999,11,0.39
2013-11-27,58,45,34,-100,-100,-100,0,0,100,29.90,29.36,14,-484,25,3.26
2013-11-28,34,30,26,-100,-100,-100,0,0,100,30.45,29.70,11,-549,24,0.00
2013-11-29,37,31,28,-100,-100,-100,0,0,100,30.73,30.47,9,-913,14,0.00
2013-11-30,35,29,21,-100,-100,-100,0,0,100,30.77,30.42,5,-957,14,0.00
2013-12-1,49,39,29,-100,-100,-100,0,0,100,30.42,30.03,0,-999,10,0.00
2013-12-2,46,39,27,-100,-100,-100,0,0,100,30.03,29.90,0,-999,0,0.00
2013-12-3,52,37,25,-100,-100,-100,0,0,100,30.01,29.87,0,-999,8,0.00
2013-12-4,50,41,29,-100,-100,-100,0,0,100,30.14,30.01,4,-955,8,0.00
2013-12-5,53,48,41,-100,-100,-100,0,0,100,30.13,29.93,0,-999,5,0.04
2013-12-6,53,46,37,-100,-100,-100,0,0,100,30.14,29.87,6,-539,10,0.71
2013-12-7,40,35,29,-100,-100,-100,0,0,100,30.52,30.10,10,-693,21,0.03
2013-12-8,31,29,26,-100,-100,-100,0,0,100,30.59,30.40,5,-957,9,0.01
2013-12-9,38,32,27,-100,-100,-100,0,0,100,30.40,29.98,3,-957,14,0.12
2013-12-10,32,29,25,-100,-100,-100,0,0,100,30.12,29.88,3,-957,9,0.23
2013-12-11,32,27,23,-100,-100,-100,0,0,100,30.32,30.12,10,-614,15,0.00
2013-12-12,27,24,21,-100,-100,-100,0,0,100,30.36,30.16,6,-914,13,0.00
2013-12-13,34,26,18,-100,-100,-100,0,0,100,30.33,30.12,9,-911,14,0.00
2013-12-14,28,24,19,-100,-100,-100,0,0,100,30.50,29.84,8,-396,14,0.20
2013-12-15,37,32,27,-100,-100,-100,0,0,100,29.84,29.54,9,-790,13,0.21
2013-12-16,30,26,18,-100,-100,-100,0,0,100,30.23,29.83,6,-832,18,0.00
2013-12-17,27,22,17,-100,-100,-100,0,0,100,30.23,29.96,4,-868,9,0.15
2013-12-18,37,27,17,-100,-100,-100,0,0,100,30.17,29.95,10,-725,12,0.00
2013-12-19,44,32,22,-100,-100,-100,0,0,100,30.18,30.03,5,-871,11,0.00
2013-12-20,50,39,29,-100,-100,-100,0,0,100,30.10,29.97,7,-914,11,0.00
2013-12-21,58,51,44,-100,-100,-100,0,0,100,29.99,29.90,8,-385,13,0.00
2013-12-22,69,62,53,-100,-100,-100,0,0,100,29.96,29.80,11,-497,18,0.01
2013-12-23,58,52,40,-100,-100,-100,0,0,100,30.16,29.94,17,-726,25,0.79
2013-12-24,40,34,24,-100,-100,-100,0,0,100,30.35,30.10,15,-391,19,0.01
2013-12-25,28,24,18,-100,-100,-100,0,0,100,30.53,30.35,9,-785,23,0.00
2013-12-26,34,29,25,-100,-100,-100,0,0,100,30.44,30.18,3,-906,11,0.00
2013-12-27,40,31,25,-100,-100,-100,0,0,100,30.36,30.27,5,-917,10,0.00
2013-12-28,53,38,26,-100,-100,-100,0,0,100,30.29,30.07,9,-790,16,0.00
2013-12-29,43,38,33,-100,-100,-100,0,0,100,30.07,29.45,10,-789,21,1.09
2013-12-30,42,33,21,-100,-100,-100,0,0,100,30.20,29.68,15,-663,19,0.00
2013-12-31,30,25,20,-100,-100,-100,0,0,100,30.28,30.06,5,-915,15,0.00
2014-1-1,31,27,20,-100,-100,-100,0,0,100,30.41,30.24,5,-977,11,0.00
2014-1-2,30,24,16,-100,-100,-100,0,0,100,30.24,29.70,10,-135,16,0.15